Погода в Уарасе

Перу     9°31′59″S   77°31′54″W
темп.,
°C
ветер,
м/с
пор.,
м/с
влажн.,
%
обл.,
%
осадки,
мм/ч
давл.,
гПа
погр.,
м
17 мая, пн
пн1701:00+4всв338546 0.2 102169
04:00+4всв238665 0.1 102057
07:00+4всв228350 0.1 102299
10:00+10ссв115747 0.1 10191255
13:00+11зсз225748 1.6 10161159
16:00+9з227188 2.9 1015760
19:00+6зюз228493 5.1 1019253
22:00+4в2293100 5.4 1024144
18 мая, вт
вт1801:00+3всв3392100 9.1 1024149
04:00+2всв229381 0.3 102250
07:00+1всв339024 0.3 102597
10:00+6всв337434 0.0 1022745
13:00+8всв226972 0.3 1018837
16:00+7з117688 0.6 1016572
19:00+5с119067 1.4 102057
22:00+5св228978 0.3 102273
19 мая, ср
ср1901:00+4св228684 0.4 102266
04:00+3св1187100 0.1 102140
07:00+4всв2281100 0.1 102269
10:00+9ссв116183 0.0 10201058
13:00+11зсз225596 0.6 10151545
16:00+9зюз227068 2.1 1015723
19:00+5з228683 3.0 101823
22:00+3в118999 0.1 102115
20 мая, чт
чт2001:00+3св008916 0.1 101910
04:00+2в11909 0.0 101911
07:00+4всв22839 0.0 102025
10:00+10в115612 0.0 10181275
13:00+12зсз214691 0.3 10131896
16:00+10зюз2265100 2.2 1014673
19:00+5зюз1189100 4.9 101813
22:00+5всв2289100 0.4 102021
21 мая, пт
пт2101:00+4св1189100 0.4 101824
04:00+4всв2289100 0.0 101840
07:00+4в2387100 0.0 102087
10:00+9всв2266100 0.1 1018965
13:00+11сз1155100 1.4 10141167
16:00+9зсз2270100 3.7 1014403
19:00+6в2287100 5.4 1019113
22:00+6всв2280100 0.2 101960